Flag for Germany Weather past 2 weeks in Trier, Rhineland-Palatinate, Germany

Now
79 °F

Clear.


Feels Like: 81 °F
Forecast: 70 / 95 °F
Wind: 5 mph from Northeast

Location: Trier-Petrisberg

Current Time: Jul 4, 2015 at 1:42:38 AM

Latest Report: Jul 4, 2015 at 1:00 AM


Visibility: 11 mi

Pressure: 30.11 "Hg

Humidity: 62%

Dew point: 65 °F

Location of TrierLocation

Historic Weather in Trier — Graph

°F

Trier temperature yesterday

Maximum temperature yesterday: 97 °F (at 5:00 PM)
Minimum temperature yesterday: 70 °F (at 7:00 AM)
Average temperature yesterday: 83 °F

Past Weeks' High & Low Weather Summary

 TemperatureHumidityPressure
High100 °F (Jul 2, 5:00 PM)99% (Jun 21, 7:00 AM)30.23 "Hg (Jun 21, 7:00 AM)
Low46 °F (Jun 19, 5:00 AM)23% (Jul 2, 4:00 PM)29.72 "Hg (Jun 22, 10:00 PM)
Average66 °F65%30.09 "Hg
* Reported Midnight between Jun 18 and Jun 19 — Midnight between Jul 3 and Jul 4, Trier, Weather by CustomWeather, © 2015

Note: Actual official high and low records may vary slightly from our data, if they occured in-between our weather recording intervals... More about our weather records

Advertising

Trier weather history for previous 24 hours

 ConditionsComfort  
Time TempWeatherWind HumidityBarometerVisibility
12:00 AM
Sat, Jul 4
80 °FClear.3 mph58%30.11 "Hg12 mi
11:00 PM
Fri, Jul 3
82 °FClear.2 mph56%30.11 "Hg12 mi
10:00 PM84 °FClear.2 mph51%30.11 "Hg12 mi
9:00 PM88 °FSunny.5 mph44%30.10 "Hg13 mi
8:00 PM92 °FSunny.5 mph37%30.09 "Hg12 mi
7:00 PM94 °FSunny.3 mph31%30.10 "Hg12 mi
6:00 PM95 °FSunny.5 mph29%30.09 "Hg14 mi
5:00 PM97 °FPassing clouds.2 mph26%30.12 "Hg17 mi
4:00 PM95 °FPassing clouds.2 mph27%30.14 "Hg16 mi
3:00 PM93 °FPassing clouds.2 mph29%30.15 "Hg16 mi
2:00 PM90 °FPassing clouds.2 mph39%30.18 "Hg12 mi
1:00 PM87 °FPassing clouds.2 mph47%30.19 "Hg12 mi
12:00 PM85 °FPassing clouds.2 mph54%30.20 "Hg12 mi
11:00 AM81 °FSunny.2 mph57%30.21 "Hg11 mi
10:00 AM78 °FSunny.3 mph62%30.22 "Hg11 mi
9:00 AM76 °FSunny.3 mph67%30.22 "Hg9 mi
8:00 AM73 °FSunny.3 mph73%30.22 "Hg7 mi
7:00 AM70 °FSunny.3 mph84%30.22 "Hg6 mi
5:00 AM72 °FClear.3 mph83%30.19 "Hg5 mi
4:00 AM74 °FClear.1 mph81%30.18 "Hg6 mi
3:00 AM75 °FClear.2 mph76%30.16 "Hg9 mi
2:00 AM77 °FClear.1 mph66%30.14 "Hg12 mi
1:00 AM78 °FClear.2 mph65%30.13 "Hg12 mi
Weather by CustomWeather, © 2015

See weather overviewHow to use our weather pages